Hourly Data Report for October 03, 2014

All times are specified in Local Standard Time (LST). Add 1 hour to adjust for Daylight Saving Time where and when it is observed.

PETAWAWA AWOS 2
ONTARIO

45°57'00.000" N
77°19'00.000" W
130.10 m
6106396
71625
YWA

Download Data

Hourly Data (October 2014)
Hourly Data Report for October 3, 2014
Temp Definition
°C
Dew Point Temp Definition
°C
Rel Hum Definition
%
Wind Dir Definition
10's deg

Wind Spd Definition
km/h
Visibility Definition
km
Stn Press Definition
kPa
Hmdx Definition


Wind Chill Definition


Weather Definition


TIME
00:00
01:00
02:00
03:00
04:00 12.6 10.2 85 12 17 12.9 99.88     LegendNANA
05:00 12.3 9.9 85 12 11 11.3 99.81     LegendNANA
06:00 12.1 9.9 86 12 20 11.3 99.77     LegendNANA
07:00 12.3 10.2 87 14 19 6.4 99.73     LegendNANA
08:00 12.8 10.6 86 13 20 8.0 99.67     LegendNANA
09:00 13.3 10.8 85 13 22 12.9 99.56     LegendNANA
10:00 14.6 11.5 82 13 20 14.5 99.43     LegendNANA
11:00 16.8 12.4 75 13 22 14.5 99.29     LegendNANA
12:00 19.4 12.2 63 16 30 14.5 99.16     LegendNANA
13:00 20.7 12.3 59 15 28 14.5 98.97     LegendNANA
14:00 21.0 11.8 56 16 32 14.5 98.88     LegendNANA
15:00 20.9 12.1 57 15 30 14.5 98.84     Drizzle
16:00 20.8 12.3 58 16 19 14.5 98.72     LegendNANA
17:00 20.1 12.5 62 16 19 14.5 98.75     LegendNANA
18:00 19.6 12.7 64 14 20 14.5 98.66     LegendNANA
19:00 18.3 13.1 72 14 17 14.5 98.64     Rain
20:00 18.4 13.4 73 15 19 14.5 98.58     Drizzle
21:00 18.3 13.6 74 15 15 14.5 98.51     LegendNANA
22:00 18.1 13.7 76 15 17 14.5 98.46     LegendNANA
23:00 17.1 14.1 82 13 15 14.5 98.42     LegendNANA

Notes on Data Quality.

Legend

  • E = Estimated
  • M = Missing
  • NA = Not Available
  • ‡ = Partner data that is not subject to review by the National Climate Archives
Date modified: